www.pogodaiklimat.ru

Погода и климат >> Архив погоды >> Кот-д'Ивуар >> Буаке


ПОГОДА в Буаке

  • Прогноз погоды в Буаке
  • Монитор погоды в Буаке

АРХИВ ПОГОДЫ в Буаке

Время (UTC), дата Ветер
(напр.,м/с)
 
Видим.   Явления Облачность Т
(С)
Тd
(С)
f
(%)
Тe
(С)
Тes
(С)
Комфортность P
(гПа)
Po
(гПа)
Тmin
(С)
Tmax
(С)
R
(мм)
R24
(мм)
S
(см)
18 12.06 ЮЗ 3 10 км 3/3 400 м
[Cu med, cong Ci sp]
+26.9 +22.7 78 +36 +36 очень
душно
1011.6 969.7 +28.6
00 13.06 Ю 1 10 км ясно +23.5 +23.0 97 +31 +31 очень
душно
1014.4 971.9
06 13.06 ЮЗ 4 7000 м 9/8 150 м
[Sc]
+22.5 +22.5 100 +30 +30 очень
душно
1014.8 972.1 +22.4
12 13.06 ЮЗ 3 10 км 8/8 400 м
[Cu med, cong]
+27.7 +22.4 73 +36 +40 очень
душно
1014.5 972.6
18 13.06 Ю 2 10 км 5/5 400 м
[Cu med, cong Ci sp]
+28.1 +22.6 72 +37 +37 очень
душно
1011.1 969.4 +30.3
21 13.06 Ю 2 10 км зарница 1/1 330 м
[Cb cap]
+25.8 +22.7 83 +34 +34 очень
душно
1013.7 971.5
00 14.06 Ю 2 10 км 3/1 330 м
[Sc Ci sp]
+24.8 +23.0 90 +33 +33 очень
душно
1013.9 971.6
03 14.06 ЮЗ 3 10 км 4/1 300 м
[Sc Ac trans]
+24.2 +22.8 92 +32 +32 очень
душно
1012.3 970.0
06 14.06 Ю 2 8000 м 4/1 300 м
[Sc Ac trans]
+22.8 +22.8 100 +31 +31 очень
душно
1013.7 971.1 +22.7
09 14.06 ЮЗ 5 10 км 10/10 300 м
[Sc]
+23.8 +22.8 94 +31 +31 очень
душно
1015.0 972.5
12 14.06 17 км н/о +27.2 +23.0 78 +36 +36 очень
душно
1014.0 972.0
15 14.06 ЮВ 2 8000 м гроза, ливневой дождь 9/6 400 м
[Cb cap Ac As]
+21.0 +21.0 100 +27 +29 душно 1013.2 970.4
18 14.06 Ю 2 10 км {гроза, дождь} 10/1 400 м
[Cu med, cong Ac As]
+22.6 +20.9 90 +30 +30 очень
душно
1010.8 968.3 +29.0 8
21 14.06 Ю 1 8000 м 9/0
[Ac trans]
+21.7 +21.2 97 +28 +28 душно 1014.9 972.1
00 15.06 Ю 2 7000 м 10/8 300 м
[Sc]
+21.9 +21.9 100 +29 +29 очень
душно
1014.8 972.0
03 15.06 Ю 1 8000 м в посл. час дождь 9/0
[Ac As]
+22.0 +22.0 100 +29 +29 очень
душно
1012.4 969.8
06 15.06 ЮЗ 1 500 м туман {дождь} 9/9 150 м
[St]
+21.8 +21.8 100 +28 +28 душно 1013.3 970.6 +21.5 8
09 15.06 Ю 2 8000 м {туман} 9/5 300 м
[Sc Ac As]
+23.5 +22.3 93 +31 +33 очень
душно
1014.4 971.9
12 15.06 Ю 3 10 км {туман} 9/8 400 м
[Cu med, cong Ac trans]
+26.1 +22.6 81 +34 +37 очень
душно
1013.7 971.6
15 15.06 Ю 4 10 км гроза без осадков 10/9 400 м
[Cb cap]
+27.4 +23.4 79 +37 +38 очень
душно
1011.5 969.7
18 15.06 ЮЗ 2 10 км {гроза} 9/4 400 м
[Cu med, cong Ac trans]
+26.5 +23.8 85 +36 +36 очень
душно
1012.6 970.6
21 15.06 Ю 1 8000 м зарница 5/3 400 м
[Cb cap Ci sp]
+24.3 +24.1 99 +33 +33 очень
душно
1014.8 972.4
00 16.06 ЮЗ 2 8000 м 1/1 300 м
[Sc Ci sp]
+23.4 +23.4 100 +33 +33 очень
душно
1015.5 973.0
03 16.06 ЮЗ 5 8000 м 6/5 300 м
[Sc Ac trans]
+23.1 +23.1 100 +32 +32 очень
душно
1013.7 971.2
06 16.06 ЮЗ 3 6000 м 6/5 150 м
[Sc Ac trans]
+22.0 +22.0 100 +29 +29 очень
душно
1013.7 971.0 +21.9
09 16.06 ЮЗ 4 9000 м 9/9 300 м
[Sc]
+23.8 +22.9 95 +32 +32 очень
душно
1014.9 972.4
12 16.06 ЮЗ 2 10 км 8/6 400 м
[Cu med, cong Ac trans]
+28.0 +23.6 77 +38 +44 очень
душно
1013.8 972.0
15 16.06 Ю 2 10 км 6/6 400 м
[Cu med, cong]
+30.2 +23.6 68 +41 +46 опасность
перегрева
1011.3 969.9
18 16.06 Ю 4 10 км гроза без осадков 8/6 400 м
[Cb cap Ci sp]
+28.3 +24.1 78 +39 +39 очень
душно
1011.7 970.0 +31.1
21 16.06 Ю 3 10 км в посл. час гроза 8/4 400 м
[Sc Ci sp]
+24.9 +24.0 95 +34 +34 очень
душно
1013.7 971.5
00 17.06 Ю 4 8000 м {гроза} 9/3 150 м
[Sc]
+24.1 +24.1 100 +33 +33 очень
душно
1014.1 971.7
03 17.06 Ю 2 8000 м 8/3 150 м
[Sc]
+23.5 +23.5 100 +32 +32 очень
душно
1013.1 970.7
06 17.06 Ю 3 7000 м 10/5 150 м
[Sc]
+23.2 +23.2 100 +33 +33 очень
душно
1013.8 971.3 +23.0
09 17.06 Ю 3 10 км 8/8 300 м
[Sc]
+25.2 +23.4 90 +34 +35 очень
душно
1015.6 973.3
15 17.06 Ю 1 10 км 8/8 400 м
[Cu med, cong]
+29.5 +23.2 69 +40 +43 очень
душно
1011.3 969.3
18 17.06 Ю 1 10 км 9/1 400 м
[Cu med, cong Ci sp]
+28.7 +22.9 71 +38 +39 очень
душно
1010.4 968.8 +30.7
21 17.06 Ю 1 10 км 6/4 330 м
[Sc Ci sp]
+25.8 +23.7 88 +35 +35 очень
душно
1012.7 970.6
00 18.06 Ю 2 10 км 6/4 400 м
[Cu med, cong Ac trans]
+25.2 +23.6 91 +34 +34 очень
душно
1014.3 972.1
03 18.06 Ю 3 7000 м зарница 9/9 300 м
[Cb cap]
+23.9 +23.9 100 +33 +33 очень
душно
1013.7 971.3
06 18.06 Ю 2 2000 м дымка 10/10 150 м
[Cu med, cong]
+23.3 +23.3 100 +33 +33 очень
душно
1014.2 971.7 +23.3
09 18.06 ЮЗ 2 10 км {туман} 9/9 330 м
[Cu med, cong]
+25.1 +23.3 90 +34 +35 очень
душно
1015.6 973.3
12 18.06 Ю 3 10 км {туман} 8/8 400 м
[Cu med, cong]
+28.4 +22.9 72 +38 +41 очень
душно
1014.1 972.3
15 18.06 ЮВ 2 10 км 6/6 450 м
[Cu med, cong Ac trans]
+30.2 +22.6 64 +40 +45 очень
душно
1011.8 970.3
18 18.06 Ю 1 10 км 3/3 400 м
[Cu med, cong Ci sp]
+29.5 +22.6 66 +39 +39 очень
душно
1011.5 969.9 +31.1
21 18.06 штиль 0 10 км 1/1 330 м
[Sc]
+26.6 +23.7 84 +36 +36 очень
душно
1013.2 971.2
00 19.06 Ю 2 10 км 1/1 300 м
[Sc]
+25.6 +23.7 89 +35 +35 очень
душно
1013.5 971.3
03 19.06 Ю 2 10 км 1/1 300 м
[Sc]
+23.5 +23.5 100 +32 +32 очень
душно
1013.4 971.0
06 19.06 ЮЗ 4 8000 м 1/1 300 м
[Sc]
+23.4 +23.4 100 +33 +33 очень
душно
1014.3 971.8 +23.2
09 19.06 ЮЗ 4 6000 м 10/10 90 м
[Sc]
+23.6 +23.6 100 +32 +32 очень
душно
1015.3 972.8
12 19.06 ЮЗ 3 10 км 10/10 330 м
[Sc]
+25.6 +23.6 89 +35 +35 очень
душно
1015.0 972.8
15 19.06 Ю 1 10 км 9/9 330 м
[Cu Sc]
+29.4 +23.8 72 +40 +42 очень
душно
1012.0 970.4

 

Местоположение метеостанции Буаке (Кот-д'Ивуар): широта 7.74 долгота -5.08 высота над уровнем моря 376 м.

В архиве по умолчанию представлена погода в Буаке за последнюю неделю. Архивные данные за месяц целиком и за предыдущие месяцы, начиная с января 2011 года, Вы можете получить, выбрав интересующий диапазон дат из раскрывающегося списка и нажав кнопку "Ввод!".


*Определитесь, кто Вы:
робот инопланетянин человек

Внимание! Время в таблицах - всемирное. Для получения местного времени необходимо прибавить поправку, которая равна 0 ч.

Смотрите также архив погоды в соседних городах и на ближайших метеорологических станциях:

Погода в Ямусукро (Кот-д'Ивуар) (98 км)
Погода в Димбокро (Кот-д'Ивуар) (128 км)
Погода в Далоа (Кот-д'Ивуар) (181 км)
Погода в Корого (Кот-д'Ивуар) (196 км)
Погода в Ганьоа (Кот-д'Ивуар) (203 км)
Погода в Бондуку (Кот-д'Ивуар) (256 км)
Погода в Мане (Кот-д'Ивуар) (272 км)
Погода в Абиджане (Кот-д'Ивуар) (305 км)
Погода в Суняни (Гана) (307 км)
Погода в Боле (Гана) (320 км)

Пояснения к столбцам:

Ветер - указаны скорость ветра в м/с - средняя за 10 мин, порывы в срок и между сроками (в фигурных скобках) и направление, откуда дует ветер: С - северный, СВ - северо-восточный, В - восточный, ЮВ - юго-восточный, Ю - южный, ЮЗ - юго-западный, З - западный, СЗ - северо-западный.
Видимость - горизонтальная дальность видимости в метрах или километрах. При видимости от 1 до 10 км при отсутствии осадков обычно наблюдается дымка, при ухудшении видимости до 1 км и менее - туман. В сухую погоду видимость может ухудшаться дымом, пылью или мглою.
Явления - указаны атмосферные явления, наблюдавшиеся в срок или в последний час перед сроком; фигурными скобками обозначены явления, наблюдавшиеся между сроками (за 1-3 часа до срока); квадратными скобками обозначены град или гололедные отложения с указанием их диаметра в мм.
Облачность - указаны через наклонную черту общая и нижняя облачность в баллах и высота нижней границы облаков в метрах; квадратными скобками обозначены формы облаков: Ci - перистые, Cs - перисто-слоистые, Cc - перисто-кучевые, Ac - высококучевые, As - высокослоистые, Sc - слоисто-кучевые, Ns - слоисто-дождевые, Cu - кучевые, Cb - кучево-дождевые. Подробнее классификацию облаков см. в Атласе облаков (PDF).
T - Температура воздуха - температура, измеренная на высоте 2 м над землей.
Td - Температура точки росы - температура, при понижении до которой содержащийся в воздухе водяной пар достигнет насыщения.
f - Относительная влажность воздуха - влажноcть воздуха, измеренная на высоте 2 м над землей.
Te - Эффективная температура - температура, которую ощущает одетый по сезону человек в тени. Характеристика душности погоды. При расчете учитывается влияние влажности воздуха и скорости ветра на теплоощущения человека.
Tes - Эффективная температура на солнце - температура, которую ощущает человек, с поправкой на солнечный нагрев. Характеристика знойности погоды. Зависит от высоты солнца над горизонтом, облачности и скорости ветра. Ночью, в пасмурную погоду, а также при ветре 12 м/с и более поправка равна нулю.
P - Атмосферное давление - приведенное к уровню моря атмосферное давление.
Po - Атмосферное давление - измеренное на уровне метеостанции атмосферное давление.
Tmin - Минимальная температура - минимум температуры воздуха на высоте 2 м над землей.
Tmax - Максимальная температура - максимум температуры воздуха на высоте 2 м над землей.
R - Количество осадков - Количество выпавших осадков за период времени, мм. При наведении курсора мыши на число - период времени, за который выпало указанное количество осадков.
R24 - Количество осадков - Количество выпавших осадков за 24 часа, мм.
S - Снежный покров - Высота снежного покрова, см. При наведении курсора мыши на число - состояние снежного покрова и степень покрытия местности в баллах.